Погода в Бохове

Чехия     50°09′03″N   13°02′56″E
темп.,
°C
ветер,
м/с
пор.,
м/с
влажн.,
%
обл.,
%
осадки,
мм/ч
давл.,
гПа
погр.,
м
7 марта, вс
вс701:00−3зсз11630 0.0 103021
04:00−3з11640 0.0 102822
07:00−3зюз11640 0.0 102621
10:00+2з35424 0.0 1025645
13:00+5зсз353711 0.0 1023979
16:00+5зсз24433 0.0 10211020
19:00−1сз22732 0.0 102122
22:00−3сз119020 0.0 102225
8 марта, пн
пн801:00−3сз129125 0.0 1022150
04:00−4зсз128846 0.0 102155
07:00−3з128572 0.0 102286
10:00+2сз126481 0.0 1022688
13:00+3ссз116080 0.1 1022869
16:00+2ссз1264100 0.1 1021866
19:00−2св1291100 0.2 102229
22:00−2всв129078 0.0 1023122
9 марта, вт
вт901:00−2в118189 0.1 1023136
04:00−3ю008099 0.0 102129
07:00−3ююз007898 0.0 102232
10:00+1юз0160100 0.0 1022562
13:00+3з1257100 0.0 1022978
16:00+3зсз2369100 0.1 1021791
19:00−1зсз119196 0.1 102221
22:00−1зюз129885 0.1 102353
10 марта, ср
ср1001:000з249492 0.1 1023209
04:000зюз239399 0.0 1023114
07:00−2зюз249672 0.0 1023195
10:00+2зюз357899 0.0 1022625
13:00+5юз466599 0.0 1020948
16:00+5юз4964100 0.0 10171037
19:00+2юз3978100 0.0 1016297
22:00+3юз41474100 0.0 1015709
11 марта, чт
чт1101:00+2юз71696100 0.4 1013855
04:00+3зюз81791100 1.9 1010991
07:00+4зюз91888100 3.2 10081046
10:00+7зюз102172100 0.2 10071374
13:00+9зюз112271100 0.2 10041695
16:00+8зюз102276100 0.1 10031838
19:00+6з102281100 1.3 10031707
22:00+4з8197957 0.1 10051620